{"data":{"norad_id":52339,"intl_designator":"2022-045J","name":"STARLINK-3792","alt_names":[],"object_type":"PAYLOAD","status":"ACTIVE","operator":null,"country":"US","launch_date":"2022-04-29","launch_site_code":"AFETR","launch_vehicle":null,"mission":null,"orbit_class":"UNKNOWN","rcs_meters":null,"size_class":null,"mass_kg":null,"dimensions":null,"purposes":["comms"],"wikipedia_slug":null,"has_3d_model":false,"image_url":null,"decayed_at":null,"tle_current":{"epoch":"2026-05-24T15:15:40.113216Z","epoch_age_seconds":117071,"freshness":"FRESH","line1":"1 52339U 22045J   26144.63588094  .00000300  00000+0  36940-4 0  9993","line2":"2 52339  53.2146 227.8260 0001291  85.6481 274.4659 15.08840737227110","mean_motion":15.08840737,"eccentricity":0.0001291,"inclination_deg":53.2146,"raan_deg":227.826,"arg_perigee_deg":85.6481,"mean_anomaly_deg":274.4659,"bstar":3.694e-5,"rev_number":22711,"period_min":95.437508060866,"perigee_km":538.84803818347,"apogee_km":540.63423431825,"semimajor_km":6917.8781362509,"source":"CELESTRAK","updated_at":"2026-05-25T13:38:17.113835Z"}}}